• Em Portugal
  • Lista de países
  • Para 7 dias
  • Temperatura da água
  • Mapas de satélite
  • Mapa do tempo
  • Widgets de tempo
  • user-avatar
    Iniciar Sessão

    Previsão horária em Mendoza

    Hoje, 18 Fevereiro, Domingo

    Tempo Temperatura Precipitação Vento Pressão Humidade
    00:00 +29°C° 0,3 mm 2 m/s 696 mmHg 50%
    01:00 +29°C° 0,3 mm 1 m/s 695 mmHg 52%
    02:00 +28°C° 0,1 mm 1 m/s 695 mmHg 53%
    03:00 +28°C° 0,1 mm 1 m/s 695 mmHg 54%
    04:00 +28°C° 0,1 mm 1 m/s 694 mmHg 54%
    05:00 +28°C° 0 mm 1 m/s 694 mmHg 53%
    06:00 +28°C° 0 mm 1 m/s 695 mmHg 51%
    07:00 +29°C° 0 mm 1 m/s 695 mmHg 50%
    08:00 +30°C° 0 mm 1 m/s 695 mmHg 45%
    09:00 +31°C° 0 mm 1 m/s 695 mmHg 41%
    10:00 +32°C° 0 mm 1 m/s 694 mmHg 37%
    11:00 +34°C° 0,1 mm 2 m/s 694 mmHg 35%
    12:00 +35°C° 0,1 mm 3 m/s 694 mmHg 34%
    13:00 +36°C° 0,1 mm 3 m/s 693 mmHg 32%
    14:00 +36°C° 0,2 mm 3 m/s 693 mmHg 32%
    15:00 +36°C° 0,2 mm 3 m/s 692 mmHg 33%
    16:00 +36°C° 0,2 mm 3 m/s 692 mmHg 33%
    17:00 +35°C° 0,5 mm 3 m/s 692 mmHg 36%
    18:00 +34°C° 0,5 mm 2 m/s 693 mmHg 38%
    19:00 +32°C° 0,5 mm 2 m/s 693 mmHg 41%
    20:00 +31°C° 0,4 mm 2 m/s 693 mmHg 42%
    21:00 +30°C° 0,4 mm 2 m/s 694 mmHg 44%
    22:00 +30°C° 0,4 mm 2 m/s 694 mmHg 46%
    23:00 +29°C° 0,4 mm 3 m/s 694 mmHg 48%

    Amanhã, 19 Fevereiro, Segunda-feira

    Tempo Temperatura Precipitação Vento Pressão Humidade
    00:00 +28°C° 0,4 mm 3 m/s 694 mmHg 51%
    01:00 +28°C° 0,4 mm 4 m/s 694 mmHg 54%
    02:00 +27°C° 0,9 mm 4 m/s 693 mmHg 58%
    03:00 +26°C° 0,9 mm 5 m/s 693 mmHg 61%
    04:00 +25°C° 0,9 mm 5 m/s 693 mmHg 65%
    05:00 +25°C° 0,3 mm 5 m/s 694 mmHg 63%
    06:00 +25°C° 0,3 mm 5 m/s 694 mmHg 61%
    07:00 +26°C° 0,3 mm 5 m/s 695 mmHg 60%
    08:00 +26°C° 0 mm 5 m/s 695 mmHg 55%
    09:00 +27°C° 0 mm 5 m/s 695 mmHg 51%
    10:00 +28°C° 0 mm 6 m/s 695 mmHg 47%
    11:00 +28°C° 0 mm 5 m/s 695 mmHg 45%
    12:00 +29°C° 0 mm 5 m/s 694 mmHg 44%
    13:00 +30°C° 0 mm 5 m/s 694 mmHg 42%
    14:00 +30°C° 0 mm 4 m/s 694 mmHg 42%
    15:00 +30°C° 0 mm 4 m/s 694 mmHg 41%
    16:00 +30°C° 0 mm 4 m/s 693 mmHg 41%
    17:00 +29°C° 0,1 mm 3 m/s 694 mmHg 43%
    18:00 +29°C° 0,1 mm 3 m/s 694 mmHg 45%
    19:00 +28°C° 0,1 mm 3 m/s 695 mmHg 47%
    20:00 +27°C° 0,1 mm 2 m/s 695 mmHg 49%
    21:00 +27°C° 0,1 mm 2 m/s 695 mmHg 50%
    22:00 +27°C° 0,1 mm 2 m/s 696 mmHg 51%
    23:00 +26°C° 0 mm 2 m/s 696 mmHg 52%

    Depois de amanhã, 20 Fevereiro, Terça-feira

    Tempo Temperatura Precipitação Vento Pressão Humidade
    00:00 +26°C° 0 mm 2 m/s 695 mmHg 53%
    01:00 +25°C° 0 mm 2 m/s 695 mmHg 54%
    02:00 +25°C° 0,1 mm 3 m/s 695 mmHg 52%
    03:00 +25°C° 0,1 mm 3 m/s 695 mmHg 51%
    04:00 +23°C° 0,1 mm 4 m/s 696 mmHg 49%
    05:00 +23°C° 0 mm 4 m/s 696 mmHg 44%
    06:00 +23°C° 0 mm 4 m/s 697 mmHg 40%
    07:00 +23°C° 0 mm 4 m/s 697 mmHg 35%
    08:00 +26°C° 0 mm 5 m/s 697 mmHg 32%
    09:00 +27°C° 0 mm 5 m/s 698 mmHg 30%
    10:00 +28°C° 0 mm 5 m/s 698 mmHg 28%
    11:00 +29°C° 0 mm 5 m/s 698 mmHg 28%
    12:00 +30°C° 0 mm 5 m/s 697 mmHg 28%
    13:00 +30°C° 0 mm 5 m/s 697 mmHg 29%
    14:00 +32°C° 0 mm 5 m/s 697 mmHg 30%
    15:00 +32°C° 0 mm 5 m/s 697 mmHg 31%
    16:00 +32°C° 0 mm 5 m/s 697 mmHg 31%
    17:00 +30°C° 0 mm 4 m/s 697 mmHg 34%
    18:00 +29°C° 0 mm 4 m/s 698 mmHg 37%
    19:00 +28°C° 0 mm 3 m/s 698 mmHg 39%
    20:00 +28°C° 0 mm 3 m/s 699 mmHg 42%
    21:00 +27°C° 0 mm 3 m/s 699 mmHg 44%
    22:00 +26°C° 0 mm 2 m/s 700 mmHg 47%
    23:00 +26°C° 0 mm 2 m/s 699 mmHg 49%

    21 Fevereiro, Quarta-feira

    Tempo Temperatura Precipitação Vento Pressão Humidade
    00:00 +25°C° 0 mm 1 m/s 699 mmHg 51%
    01:00 +25°C° 0 mm 1 m/s 699 mmHg 54%
    02:00 +24°C° 0 mm 1 m/s 699 mmHg 55%
    03:00 +24°C° 0 mm 1 m/s 699 mmHg 55%
    04:00 +24°C° 0 mm 1 m/s 698 mmHg 56%
    05:00 +24°C° 0 mm 1 m/s 699 mmHg 54%
    06:00 +25°C° 0 mm 1 m/s 699 mmHg 52%
    07:00 +25°C° 0 mm 2 m/s 700 mmHg 50%
    08:00 +27°C° 0 mm 3 m/s 700 mmHg 47%
    09:00 +28°C° 0 mm 4 m/s 700 mmHg 43%
    10:00 +30°C° 0 mm 5 m/s 700 mmHg 40%
    11:00 +32°C° 0 mm 5 m/s 699 mmHg 38%
    12:00 +33°C° 0 mm 6 m/s 698 mmHg 36%
    13:00 +34°C° 0 mm 7 m/s 698 mmHg 33%
    14:00 +34°C° 0 mm 6 m/s 697 mmHg 32%
    15:00 +34°C° 0 mm 6 m/s 697 mmHg 31%
    16:00 +35°C° 0 mm 6 m/s 696 mmHg 30%
    17:00 +34°C° 0 mm 5 m/s 696 mmHg 32%
    18:00 +33°C° 0 mm 4 m/s 697 mmHg 34%
    19:00 +31°C° 0 mm 3 m/s 697 mmHg 37%
    20:00 +30°C° 0,1 mm 2 m/s 697 mmHg 39%
    21:00 +29°C° 0,1 mm 2 m/s 697 mmHg 41%
    22:00 +29°C° 0,1 mm 2 m/s 697 mmHg 43%
    23:00 +28°C° 0,1 mm 2 m/s 697 mmHg 45%

    22 Fevereiro, Quinta-feira

    Tempo Temperatura Precipitação Vento Pressão Humidade
    00:00 +28°C° 0,1 mm 2 m/s 697 mmHg 46%
    01:00 +27°C° 0,1 mm 2 m/s 697 mmHg 48%
    02:00 +27°C° 0 mm 2 m/s 697 mmHg 49%
    03:00 +26°C° 0 mm 2 m/s 696 mmHg 51%
    04:00 +26°C° 0 mm 2 m/s 696 mmHg 52%
    05:00 +26°C° 0,1 mm 2 m/s 697 mmHg 50%
    06:00 +27°C° 0,1 mm 3 m/s 697 mmHg 47%
    07:00 +27°C° 0,1 mm 3 m/s 698 mmHg 45%
    08:00 +28°C° 0,3 mm 3 m/s 698 mmHg 44%
    09:00 +29°C° 0,3 mm 3 m/s 698 mmHg 43%
    10:00 +30°C° 0,3 mm 2 m/s 698 mmHg 41%
    11:00 +31°C° 0,2 mm 3 m/s 698 mmHg 39%
    12:00 +33°C° 0,2 mm 3 m/s 697 mmHg 37%
    13:00 +34°C° 0,2 mm 3 m/s 697 mmHg 35%
    14:00 +34°C° 0,2 mm 3 m/s 696 mmHg 35%
    15:00 +35°C° 0,2 mm 3 m/s 696 mmHg 34%
    16:00 +35°C° 0,2 mm 3 m/s 696 mmHg 33%
    17:00 +34°C° 0,4 mm 3 m/s 696 mmHg 36%
    18:00 +32°C° 0,4 mm 2 m/s 696 mmHg 38%
    19:00 +31°C° 0,4 mm 2 m/s 697 mmHg 40%
    20:00 +31°C° 0,4 mm 2 m/s 697 mmHg 42%
    21:00 +30°C° 0,4 mm 3 m/s 697 mmHg 43%
    22:00 +30°C° 0,4 mm 3 m/s 697 mmHg 45%
    23:00 +26°C° 2,9 mm 5 m/s 698 mmHg 57%

    23 Fevereiro, Sexta-feira

    Tempo Temperatura Precipitação Vento Pressão Humidade
    00:00 +22°C° 2,9 mm 8 m/s 698 mmHg 70%
    01:00 +18°C° 2,9 mm 10 m/s 698 mmHg 82%
    02:00 +18°C° 0,4 mm 9 m/s 699 mmHg 81%
    03:00 +18°C° 0,4 mm 8 m/s 699 mmHg 79%
    04:00 +18°C° 0,4 mm 7 m/s 700 mmHg 77%
    05:00 +19°C° 0 mm 6 m/s 700 mmHg 76%
    06:00 +19°C° 0 mm 6 m/s 701 mmHg 75%
    07:00 +19°C° 0 mm 5 m/s 701 mmHg 74%
    08:00 +20°C° 0 mm 5 m/s 701 mmHg 70%
    09:00 +21°C° 0 mm 4 m/s 701 mmHg 65%
    10:00 +22°C° 0 mm 4 m/s 701 mmHg 61%
    11:00 +23°C° 0 mm 4 m/s 700 mmHg 58%
    12:00 +25°C° 0 mm 4 m/s 700 mmHg 56%
    13:00 +25°C° 0 mm 4 m/s 700 mmHg 53%
    14:00 +26°C° 0 mm 4 m/s 700 mmHg 52%
    15:00 +26°C° 0 mm 4 m/s 699 mmHg 52%
    16:00 +26°C° 0 mm 4 m/s 699 mmHg 51%
    17:00 +26°C° 0 mm 3 m/s 700 mmHg 53%
    18:00 +25°C° 0 mm 3 m/s 700 mmHg 54%
    19:00 +25°C° 0 mm 3 m/s 701 mmHg 56%
    20:00 +24°C° 0,1 mm 2 m/s 701 mmHg 57%
    21:00 +24°C° 0,1 mm 2 m/s 701 mmHg 59%
    22:00 +24°C° 0,1 mm 1 m/s 702 mmHg 60%
    23:00 +23°C° 0 mm 1 m/s 701 mmHg 62%
    Mostrar mais